Stations météo

réclame
Mon MeteoGroup
Northolt, Grande-Bretagne (3672): Température de l'air & dewpoint: 12.06.2018 02:00:00 - 18.06.2018 02:00:00 (BST)Northolt, Grande-Bretagne (3672): Température de l'air -20cm & Température de l'air -100cm: 12.06.2018 02:00:00 - 18.06.2018 02:00:00 (BST)Northolt, Grande-Bretagne (3672): Vitesse du vent & gusts: 12.06.2018 02:00:00 - 18.06.2018 02:00:00 (BST)Northolt, Grande-Bretagne (3672): Direction du vent: 12.06.2018 02:00:00 - 18.06.2018 02:00:00 (BST)Northolt, Grande-Bretagne (3672): reduced air pressure: 12.06.2018 02:00:00 - 18.06.2018 02:00:00 (BST)Northolt, Grande-Bretagne (3672): visibility: 12.06.2018 02:00:00 - 18.06.2018 02:00:00 (BST)Northolt, Grande-Bretagne (3672): Quantités de précipitations: 12.06.2018 02:00:00 - 18.06.2018 02:00:00 (BST)
Date & Time tt [°C] td [°C] tt -20cm [°C] tt -100cm [°C] ff [km/h] ff [knt] fx [km/h] fx [knt] dd ppp [hPa] vv [km] rr [mm]
18.06.2018 02:00:00 15,5 14,5 - - 16 9 - - SW 1016,7 10 0,0
18.06.2018 01:00:00 15,3 14,3 - - 15 8 - - SW 1016,7 10 0,0
18.06.2018 00:00:00 15,1 14,3 - - 13 7 - - SW 1016,9 10 0,0
17.06.2018 23:00:00 15,3 13,8 - - 16 9 - - SW 1017,1 10 0,0
17.06.2018 22:00:00 15,3 13,4 - - 15 8 - - SW 1016,9 10 0,0
17.06.2018 21:00:00 15,4 13,1 - - 21 11 - - SW 1016,5 10 0,0
17.06.2018 20:00:00 15,5 12,6 - - 16 9 - - SW 1016,9 10 0,0
17.06.2018 19:00:00 15,7 12,3 - - 21 11 - - SW 1016,6 10 0,0
17.06.2018 18:00:00 16,5 11,3 - - 18 10 - - SW 1016,4 10 0,0
17.06.2018 17:00:00 16,8 10,9 - - 22 12 - - WSW 1016,4 10 0,0
17.06.2018 16:00:00 17,2 10,9 - - 21 11 - - WSW 1016,4 10 0,0
17.06.2018 15:00:00 17,3 9,9 - - 21 11 - - SW 1016,5 10 0,0
17.06.2018 14:00:00 17,5 9,5 - - 22 12 - - WSW 1016,4 10 0,0
17.06.2018 13:00:00 17,8 8,9 - - 22 12 - - WSW 1016,3 10 0,0
17.06.2018 12:00:00 17,9 9,1 - - 26 14 - - W 1016,5 10 0,0
17.06.2018 11:00:00 16,6 10,3 - - 22 12 - - W 1016,5 10 0,0
17.06.2018 10:00:00 15,5 10,5 18,0 16,2 21 11 - - W 1017,0 10 0,0
17.06.2018 09:00:00 13,7 11,3 - - 21 11 - - WSW 1016,7 10 0,0
17.06.2018 08:00:00 13,1 10,8 - - 18 10 - - WSW 1016,5 10 0,2
17.06.2018 07:00:00 13,4 9,7 - - 21 11 - - WSW 1015,7 10 0,0
17.06.2018 06:00:00 13,2 9,4 - - 18 10 - - WSW 1015,2 10 0,0
17.06.2018 05:00:00 13,1 9,3 - - 16 9 - - WSW 1015,1 10 0,0
17.06.2018 04:00:00 12,9 9,0 - - 13 7 - - WSW 1014,8 10 0,0
17.06.2018 03:00:00 12,5 8,9 - - 15 8 - - WSW 1015,0 10 0,0
17.06.2018 02:00:00 12,3 8,4 - - 11 6 - - WSW 1015,1 30 0,0
17.06.2018 01:00:00 12,9 8,0 - - 15 8 - - WSW 1015,1 10 0,0
17.06.2018 00:00:00 13,5 7,8 - - 16 9 - - WSW 1014,7 10 0,0
16.06.2018 23:00:00 14,0 7,5 - - 21 11 - - WSW 1014,5 35 0,0
16.06.2018 22:00:00 14,5 7,1 - - 22 12 - - WSW 1014,2 10 0,0
16.06.2018 21:00:00 16,0 7,7 - - 34 18 50 27 W 1013,6 10 0,0
16.06.2018 20:00:00 17,0 11,6 - - 24 13 - - SW 1013,0 10 0,0
16.06.2018 19:00:00 17,5 11,5 - - 22 12 - - SW 1012,9 10 0,0
16.06.2018 18:00:00 17,6 11,7 - - 21 11 - - SW 1012,9 10 0,0
16.06.2018 17:00:00 17,2 11,6 - - 24 13 - - SW 1013,2 40 0,0
16.06.2018 16:00:00 17,7 10,9 - - 24 13 - - SW 1013,6 10 0,0
16.06.2018 15:00:00 18,3 10,4 - - 24 13 - - SW 1013,6 10 0,0
16.06.2018 14:00:00 18,9 10,1 - - 22 12 - - WSW 1013,6 10 0,0
16.06.2018 13:00:00 18,3 8,9 - - 21 11 - - WSW 1013,7 10 0,0
16.06.2018 12:00:00 17,6 8,1 - - 22 12 - - SW 1014,1 10 0,0
16.06.2018 11:00:00 18,0 7,9 - - 21 11 - - SW 1014,4 10 0,0
16.06.2018 10:00:00 18,5 8,9 18,2 16,0 15 8 - - SW 1014,5 10 0,0
16.06.2018 09:00:00 15,9 8,6 - - 15 8 - - W 1014,9 10 0,0
16.06.2018 08:00:00 14,8 8,7 - - 8 4 - - WSW 1014,8 10 0,0
16.06.2018 07:00:00 14,2 8,8 - - 5 3 - - SW 1014,8 10 0,0
16.06.2018 06:00:00 13,7 8,5 - - 5 3 - - WSW 1014,8 30 0,0
16.06.2018 05:00:00 13,5 8,0 - - 5 3 - - SW 1014,7 35 0,0
16.06.2018 04:00:00 13,7 7,6 - - 4 2 - - WSW 1015,1 40 0,0
16.06.2018 03:00:00 13,8 7,5 - - 2 1 - - W 1015,5 40 0,0
16.06.2018 02:00:00 14,3 7,4 - - 8 4 - - WNW 1015,5 40 0,0
16.06.2018 01:00:00 14,9 7,0 - - 11 6 - - W 1015,9 40 0,0
16.06.2018 00:00:00 15,4 6,6 - - 13 7 - - W 1015,8 40 0,0
15.06.2018 23:00:00 16,0 6,9 - - 11 6 - - WNW 1015,9 35 0,0
15.06.2018 22:00:00 17,0 6,7 - - 13 7 - - W 1016,0 10 0,0
15.06.2018 21:00:00 17,9 6,0 - - 18 10 - - WNW 1015,9 10 0,0
15.06.2018 20:00:00 18,5 6,8 - - 18 10 - - WNW 1015,7 10 0,0
15.06.2018 19:00:00 19,8 7,3 - - 16 9 - - WNW 1015,5 10 0,0
15.06.2018 18:00:00 20,2 7,2 - - 16 9 - - WNW 1015,5 10 0,0
15.06.2018 17:00:00 20,3 6,5 - - 18 10 - - W 1015,8 10 0,0
15.06.2018 16:00:00 21,5 6,9 - - 22 12 - - W 1016,0 10 0,0
15.06.2018 15:00:00 21,4 7,5 - - 18 10 - - WNW 1016,2 10 0,0
15.06.2018 14:00:00 21,4 8,0 - - 13 7 - - WSW 1016,3 10 0,0
15.06.2018 13:00:00 21,2 8,0 - - 16 9 - - WSW 1016,3 10 0,0
15.06.2018 12:00:00 20,1 8,1 - - 11 6 - - W 1016,8 10 0,0
15.06.2018 11:00:00 19,7 8,7 - - 9 5 - - SW 1016,5 10 0,0
15.06.2018 10:00:00 18,1 9,1 18,0 16,0 5 3 - - SW 1016,8 10 0,0
15.06.2018 09:00:00 16,1 9,5 - - 5 3 - - W 1017,4 10 0,0
15.06.2018 08:00:00 14,3 9,8 - - 8 4 - - W 1017,3 10 0,0
15.06.2018 07:00:00 12,6 10,0 - - 4 2 - - W 1016,8 10 0,0
15.06.2018 06:00:00 10,9 9,7 - - 4 2 - - WNW 1016,7 16 0,0
15.06.2018 05:00:00 10,7 9,5 - - 4 2 - - WNW 1016,4 10 0,0
15.06.2018 04:00:00 11,8 10,0 - - 5 3 - - W 1016,3 10 0,0
15.06.2018 03:00:00 12,1 10,0 - - 4 2 - - WNW 1016,2 10 0,0
15.06.2018 02:00:00 13,0 10,4 - - 2 1 - - SW 1016,0 10 0,0
15.06.2018 01:00:00 13,8 10,3 - - 9 5 - - W 1016,3 10 0,0
15.06.2018 00:00:00 14,6 10,3 - - 9 5 - - WNW 1016,1 10 0,0
14.06.2018 23:00:00 16,6 9,9 - - 15 8 - - W 1015,6 10 0,0
14.06.2018 22:00:00 17,1 8,9 - - 5 3 - - WNW 1015,2 10 0,0
14.06.2018 21:00:00 19,0 8,4 - - 11 6 - - NNW 1014,4 10 0,0
14.06.2018 20:00:00 20,6 8,0 - - 15 8 - - NNW 1013,6 10 0,0
14.06.2018 19:00:00 21,4 7,8 - - 18 10 - - NW 1013,0 10 0,0
14.06.2018 18:00:00 21,7 8,1 - - 21 11 - - NW 1012,4 10 0,0
14.06.2018 17:00:00 22,4 8,8 - - 24 13 - - WNW 1012,0 10 0,0
14.06.2018 16:00:00 21,1 8,5 - - 24 13 - - WNW 1011,6 10 0,0
14.06.2018 15:00:00 22,0 9,3 - - 28 15 - - W 1011,1 10 0,0
14.06.2018 14:00:00 20,0 9,6 - - 28 15 48 26 W 1010,9 10 0,0
14.06.2018 13:00:00 20,6 11,6 - - 31 17 48 26 W 1010,4 10 0,0
14.06.2018 12:00:00 17,2 13,9 - - 24 13 - - WSW 1010,2 10 0,0
14.06.2018 11:00:00 15,3 13,8 - - 21 11 - - WSW 1009,9 10 0,0
14.06.2018 10:00:00 15,4 12,8 18,2 16,0 22 12 - - SW 1009,7 10 0,0
14.06.2018 09:00:00 14,6 12,9 - - 22 12 - - SW 1009,9 10 0,0
14.06.2018 08:00:00 15,4 11,5 - - 22 12 - - SW 1010,1 10 0,0
14.06.2018 07:00:00 15,1 11,1 - - 22 12 - - SW 1010,0 10 0,0
14.06.2018 06:00:00 14,7 11,0 - - 24 13 - - SW 1010,6 10 0,0
14.06.2018 05:00:00 14,5 11,2 - - 21 11 - - SW 1011,1 10 0,0
14.06.2018 04:00:00 14,2 11,8 - - 16 9 - - SSW 1011,6 20 0,0
14.06.2018 03:00:00 14,2 11,5 - - 21 11 - - SSW 1012,7 18 0,0
14.06.2018 02:00:00 14,1 12,0 - - 15 8 - - SSW 1013,3 13 0,0
14.06.2018 01:00:00 14,2 12,0 - - 18 10 - - SW 1014,3 11 0,0
14.06.2018 00:00:00 14,8 11,3 - - 16 9 - - SSW 1014,7 10 0,0
13.06.2018 23:00:00 15,6 10,7 - - 18 10 - - SSW 1015,2 10 0,0
13.06.2018 22:00:00 16,4 10,0 - - 18 10 - - SSW 1015,6 10 0,0
13.06.2018 21:00:00 17,2 8,2 - - 16 9 - - SW 1015,7 10 0,0
13.06.2018 20:00:00 18,3 7,0 - - 16 9 - - SW 1015,9 10 0,0
13.06.2018 19:00:00 19,3 8,3 - - 21 11 - - WSW 1016,0 10 0,0
13.06.2018 18:00:00 20,0 7,9 - - 26 14 - - WSW 1016,1 10 0,0
13.06.2018 17:00:00 20,6 9,6 - - 21 11 - - SW 1016,4 10 0,0
13.06.2018 16:00:00 21,5 9,4 - - 18 10 - - WSW 1016,8 10 0,0
13.06.2018 15:00:00 20,6 9,6 - - 18 10 - - WSW 1017,2 10 0,0
13.06.2018 14:00:00 21,7 9,0 - - 13 7 - - WSW 1017,7 10 0,0
13.06.2018 13:00:00 20,5 9,0 - - 15 8 - - WSW 1018,3 10 0,0
13.06.2018 12:00:00 20,8 9,7 - - 11 6 - - WSW 1018,9 10 0,0
13.06.2018 11:00:00 18,5 8,6 - - 11 6 - - WSW 1019,1 10 0,0
13.06.2018 10:00:00 18,0 8,5 18,0 16,0 9 5 - - SW 1019,0 10 0,0
13.06.2018 09:00:00 15,0 8,3 - - 5 3 - - SSW 1019,8 10 0,0
13.06.2018 08:00:00 13,4 8,8 - - 8 4 - - SSW 1019,8 10 0,0
13.06.2018 07:00:00 10,7 8,7 - - 2 1 - - NW 1020,1 10 0,0
13.06.2018 06:00:00 9,4 8,0 - - 2 1 - - WNW 1019,9 21 0,0
13.06.2018 05:00:00 8,3 7,2 - - 2 1 - - NW 1019,9 10 0,0
13.06.2018 04:00:00 7,7 6,7 - - 5 3 - - NNW 1020,1 23 0,0
13.06.2018 03:00:00 8,1 6,9 - - 5 3 - - NW 1020,1 10 0,0
13.06.2018 02:00:00 8,9 7,3 - - 2 1 - - N 1020,2 10 0,0
13.06.2018 01:00:00 10,0 7,8 - - 2 1 - - N 1020,4 30 0,0
13.06.2018 00:00:00 12,4 7,9 - - 8 4 - - NNE 1020,0 10 0,0
12.06.2018 23:00:00 13,5 7,8 - - 9 5 - - NE 1019,8 35 0,0
12.06.2018 22:00:00 14,6 8,1 - - 15 8 - - NE 1019,3 10 0,0
12.06.2018 21:00:00 16,1 7,5 - - 15 8 - - NE 1018,6 10 0,0
12.06.2018 20:00:00 17,2 6,7 - - 18 10 - - NNE 1018,3 10 0,0
12.06.2018 19:00:00 17,5 9,2 - - 18 10 - - NE 1018,1 10 0,0
12.06.2018 18:00:00 17,3 9,0 - - 16 9 - - NNE 1017,8 10 0,0
12.06.2018 17:00:00 18,2 8,2 - - 16 9 - - NNE 1017,7 10 0,0
12.06.2018 16:00:00 17,5 10,5 - - 11 6 - - NE 1017,7 10 0,0
12.06.2018 15:00:00 17,0 11,3 - - 13 7 - - ENE 1017,9 10 0,0
12.06.2018 14:00:00 15,0 12,8 - - 15 8 - - NE 1018,1 10 0,0
12.06.2018 13:00:00 16,4 10,5 - - 16 9 - - NE 1017,6 10 0,0
12.06.2018 12:00:00 16,2 10,4 - - 13 7 - - ENE 1017,4 10 0,0
12.06.2018 11:00:00 15,1 10,2 - - 16 9 - - ENE 1017,1 10 0,0
12.06.2018 10:00:00 14,9 9,8 19,0 15,9 16 9 - - NE 1016,7 10 0,0
12.06.2018 09:00:00 13,7 8,9 - - 18 10 - - ENE 1016,4 10 0,0
12.06.2018 08:00:00 11,9 9,3 - - 16 9 - - NNE 1015,9 10 0,0
12.06.2018 07:00:00 12,2 9,9 - - 15 8 - - ENE 1015,3 10 0,0
12.06.2018 06:00:00 12,7 10,1 - - 11 6 - - NE 1014,8 10 0,0
12.06.2018 05:00:00 12,0 10,0 - - 9 5 - - E 1014,4 10 0,0
12.06.2018 04:00:00 12,8 10,0 - - 5 3 - - E 1014,3 10 0,0
12.06.2018 03:00:00 14,0 10,0 - - 9 5 - - NE 1014,4 10 0,0
12.06.2018 02:00:00 14,5 9,8 - - 8 4 - - N 1014,3 10 0,0

tt = Température de l'air
td = dewpoint
tt -20cm = Température de l'air -20cm
tt -100cm = Température de l'air -100cm
ff = Vitesse du vent
fx = gusts
dd = Direction du vent
ppp = reduced air pressure
vv = visibility
rr = Quantités de précipitations

stations d'obs. à proximité